Weather History for South Haven, MI

Change the Weather History Date:

Thursday, October 20, 2011

  Actual Average (KBIV) Record (KBIV)
Temperature  
Mean Temperature 42 °F 51 °F  
Max Temperature 44 °F 60 °F 81 °F (1953)
Min Temperature 41 °F 42 °F 24 °F (1952)
Degree Days  
Heating Degree Days 22 14  
Month to date heating degree days 222  
Since 1 July heating degree days 352  
Cooling Degree Days 0 0  
Month to date cooling degree days 10  
Year to date cooling degree days 692  
Moisture  
Dew Point 41 °F    
Average Humidity 90    
Maximum Humidity 93    
Minimum Humidity 87    
Precipitation  
Precipitation 0.00 in 0.12 in 0.53 in (1965)
Month to date precipitation 2.21  
Year to date precipitation 29.32  
Sea Level Pressure  
Sea Level Pressure 29.44 in    
Wind  
Wind Speed 18 mph (North)    
Max Wind Speed 24 mph    
Max Gust Speed 36 mph    
Visibility 8 miles    
Events Rain    
T = Trace of Precipitation, MM = Missing Value Source: NWS Daily Summary

Daily Weather History Graph

Daily Weather History Graph

Search for Another Location

Airport:

Trip Planner

Search our weather history database for the weather conditions in past years. The results will help you decide how hot, cold, wet, or windy it might be!

Date:

Astronomy

Oct. 20, 2011 Rise Set
Actual Time 8:03 AM EDT 6:55 PM EDT
Civil Twilight 7:34 AM EDT 7:24 PM EDT
Nautical Twilight 7:02 AM EDT 7:56 PM EDT
Astronomical Twilight 6:29 AM EDT 8:29 PM EDT
Moon 12:39 AM EDT (10/20) 3:11 PM EDT (10/20)
Length of Visible Light 11h 49m
Length of Day
10h 52m
Last Quarter, 44% of the Moon is Illuminated
Oct 20
Last Quarter
Oct 26
New
Nov 2
First Quarter
Nov 10
Full
Nov 18
Last Quarter

Hourly Weather History & Observations

Time (EDT) Temp. Windchill Dew Point Humidity Pressure Visibility Wind Dir Wind Speed Gust Speed Precip Events Conditions
12:15 AM 41.0 °F 33.1 °F 39.2 °F 93% 29.43 in 7.0 mi North 15.0 mph 23.0 mph N/A Rain Light Rain
12:35 AM 41.0 °F 32.5 °F 39.2 °F 93% 29.41 in 4.0 mi North 17.3 mph 24.2 mph N/A   Overcast
12:55 AM 41.0 °F 32.8 °F 39.2 °F 93% 29.40 in 7.0 mi North 16.1 mph 27.6 mph N/A   Overcast
1:15 AM 42.8 °F 35.1 °F 39.2 °F 87% 29.40 in 7.0 mi North 16.1 mph 24.2 mph N/A Rain Rain
1:35 AM 41.0 °F 33.1 °F 39.2 °F 93% 29.39 in 7.0 mi North 15.0 mph 24.2 mph N/A Rain Rain
1:55 AM 41.0 °F 33.1 °F 39.2 °F 93% 29.38 in 10.0 mi North 15.0 mph 25.3 mph N/A Rain Light Rain
2:35 AM 42.8 °F 34.3 °F 39.2 °F 87% 29.36 in 10.0 mi North 19.6 mph 29.9 mph N/A Rain Light Rain
2:55 AM 42.8 °F 34.8 °F 39.2 °F 87% 29.36 in 10.0 mi North 17.3 mph 27.6 mph N/A Rain Light Rain
3:15 AM 42.8 °F 34.3 °F 39.2 °F 87% 29.35 in 10.0 mi North 19.6 mph 31.1 mph N/A Rain Light Rain
3:35 AM 42.8 °F 34.8 °F 39.2 °F 87% 29.35 in 7.0 mi North 17.3 mph 31.1 mph N/A Rain Light Rain
3:55 AM 42.8 °F 35.1 °F 41.0 °F 93% 29.34 in 10.0 mi North 16.1 mph 28.8 mph N/A Rain Light Rain
4:15 AM 42.8 °F 33.5 °F 41.0 °F 93% 29.34 in 10.0 mi North 23.0 mph 28.8 mph N/A Rain Light Rain
4:35 AM 42.8 °F 34.3 °F 41.0 °F 93% 29.34 in 7.0 mi North 19.6 mph 31.1 mph N/A Rain Light Rain
4:55 AM 42.8 °F 34.0 °F 41.0 °F 93% 29.34 in 7.0 mi North 20.7 mph 32.2 mph N/A Rain Light Rain
5:15 AM 42.8 °F 34.3 °F 41.0 °F 93% 29.34 in 7.0 mi North 19.6 mph 27.6 mph N/A Rain Light Rain
5:35 AM 42.8 °F 34.0 °F 41.0 °F 93% 29.34 in 10.0 mi North 20.7 mph 29.9 mph N/A Rain Light Rain
5:55 AM 42.8 °F 33.8 °F 41.0 °F 93% 29.34 in 5.0 mi North 21.9 mph 33.4 mph N/A Rain Light Rain
6:15 AM 42.8 °F 35.1 °F 41.0 °F 93% 29.34 in 7.0 mi North 16.1 mph 34.5 mph N/A Rain Rain
6:34 AM 42.8 °F 34.3 °F 39.2 °F 87% 29.35 in 7.0 mi North 19.6 mph 32.2 mph N/A Rain Light Rain
7:15 AM 42.8 °F 34.8 °F 41.0 °F 93% 29.34 in 10.0 mi North 17.3 mph 29.9 mph N/A Rain Light Rain
7:35 AM 42.8 °F 34.5 °F 41.0 °F 93% 29.34 in 10.0 mi North 18.4 mph 28.8 mph N/A Rain Light Rain
7:55 AM 42.8 °F 34.3 °F 41.0 °F 93% 29.35 in 7.0 mi North 19.6 mph 29.9 mph N/A   Light Drizzle
8:14 AM 42.8 °F 34.5 °F 41.0 °F 93% 29.36 in 4.0 mi North 18.4 mph 35.7 mph N/A Rain Light Rain
8:35 AM 44.6 °F 36.1 °F 41.0 °F 87% 29.36 in 3.0 mi North 21.9 mph 29.9 mph N/A Rain Light Rain
8:55 AM 44.6 °F 37.4 °F 41.0 °F 87% 29.37 in 7.0 mi North 16.1 mph 26.5 mph N/A Rain Light Rain
9:14 AM 44.6 °F 37.8 °F 41.0 °F 87% 29.38 in 10.0 mi North 15.0 mph 24.2 mph N/A Rain Rain
9:35 AM 44.6 °F 36.6 °F 41.0 °F 87% 29.39 in 4.0 mi North 19.6 mph 32.2 mph N/A Rain Light Rain
9:55 AM 44.6 °F 37.2 °F 41.0 °F 87% 29.39 in 7.0 mi North 17.3 mph 28.8 mph N/A Rain Light Rain
10:15 AM 44.6 °F 38.4 °F 41.0 °F 87% 29.40 in 10.0 mi North 12.7 mph 24.2 mph N/A Rain Light Rain
10:35 AM 44.6 °F 36.9 °F 41.0 °F 87% 29.40 in 4.0 mi North 18.4 mph 28.8 mph N/A Rain Light Rain
10:54 AM 44.6 °F 36.6 °F 41.0 °F 87% 29.41 in 7.0 mi North 19.6 mph 27.6 mph N/A Rain Rain
11:15 AM 44.6 °F 36.6 °F 41.0 °F 87% 29.42 in 10.0 mi North 19.6 mph 27.6 mph N/A Rain Rain
11:35 AM 44.6 °F 38.4 °F 42.8 °F 93% 29.42 in 10.0 mi North 12.7 mph 27.6 mph N/A Rain Light Rain
11:55 AM 44.6 °F 37.4 °F 41.0 °F 87% 29.43 in 10.0 mi North 16.1 mph 31.1 mph N/A Rain Rain
12:15 PM 44.6 °F 36.6 °F 42.8 °F 93% 29.44 in 10.0 mi North 19.6 mph 29.9 mph N/A Rain Light Rain
12:55 PM 44.6 °F 36.4 °F 42.8 °F 93% 29.45 in 10.0 mi North 20.7 mph 31.1 mph N/A   Drizzle
1:15 PM 44.6 °F 36.9 °F 42.8 °F 93% 29.45 in 5.0 mi NNW 18.4 mph 32.2 mph N/A Rain Rain
1:35 PM 44.6 °F 36.4 °F 42.8 °F 93% 29.45 in 3.0 mi North 20.7 mph 34.5 mph N/A Rain Light Rain
1:55 PM 44.6 °F 36.4 °F 41.0 °F 87% 29.46 in 5.0 mi NNW 20.7 mph 35.7 mph N/A Rain Light Rain
2:14 PM 44.6 °F 35.9 °F 41.0 °F 87% 29.47 in 10.0 mi NNW 23.0 mph 32.2 mph N/A Rain Light Rain
2:35 PM 44.6 °F 36.1 °F 41.0 °F 87% 29.48 in 7.0 mi NNW 21.9 mph 32.2 mph N/A Rain Light Rain
2:55 PM 44.6 °F 36.6 °F 41.0 °F 87% 29.50 in 5.0 mi North 19.6 mph 33.4 mph N/A Rain Light Rain
3:15 PM 44.6 °F 36.4 °F 41.0 °F 87% 29.50 in 7.0 mi NNW 20.7 mph 29.9 mph N/A Rain Light Rain
3:35 PM 44.6 °F 37.2 °F 41.0 °F 87% 29.52 in 7.0 mi NNW 17.3 mph 28.8 mph N/A Rain Light Rain
3:55 PM 44.6 °F 37.4 °F 41.0 °F 87% 29.53 in 7.0 mi NNW 16.1 mph 26.5 mph N/A Rain Rain
4:35 PM 44.6 °F 37.4 °F 41.0 °F 87% 29.56 in 5.0 mi NNW 16.1 mph 32.2 mph N/A Rain Light Rain
4:54 PM 44.6 °F 35.9 °F 41.0 °F 87% 29.57 in 5.0 mi NNW 23.0 mph 31.1 mph N/A Rain Rain
5:15 PM 44.6 °F 35.7 °F 41.0 °F 87% 29.59 in 10.0 mi NNW 24.2 mph 34.5 mph N/A Rain Light Rain
5:35 PM 44.6 °F 35.9 °F 42.8 °F 93% 29.60 in 7.0 mi NW 23.0 mph 32.2 mph N/A Rain Light Rain
5:55 PM 44.6 °F 36.4 °F 42.8 °F 93% 29.61 in 5.0 mi NW 20.7 mph 28.8 mph N/A Rain Light Rain
6:34 PM 44.6 °F 36.9 °F 42.8 °F 93% 29.64 in 7.0 mi NW 18.4 mph 32.2 mph N/A Rain Light Rain
6:55 PM 44.6 °F 35.9 °F 42.8 °F 93% 29.66 in 7.0 mi NNW 23.0 mph 34.5 mph N/A   Light Drizzle
7:14 PM 44.6 °F 37.4 °F 41.0 °F 87% 29.68 in 10.0 mi NW 16.1 mph 26.5 mph N/A   Light Drizzle
7:35 PM 44.6 °F 37.2 °F 41.0 °F 87% 29.69 in 10.0 mi NW 17.3 mph 28.8 mph N/A Rain Rain
7:55 PM 44.6 °F 36.6 °F 41.0 °F 87% 29.70 in 7.0 mi NW 19.6 mph 27.6 mph N/A Rain Rain
8:14 PM 44.6 °F 36.9 °F 41.0 °F 87% 29.72 in 10.0 mi NNW 18.4 mph 33.4 mph N/A Rain Light Rain
8:35 PM 44.6 °F 37.2 °F 41.0 °F 87% 29.72 in 7.0 mi NNW 17.3 mph 24.2 mph N/A Rain Heavy Rain
9:15 PM 44.6 °F 37.4 °F 41.0 °F 87% 29.74 in 5.0 mi NW 16.1 mph 27.6 mph N/A Rain Rain
9:35 PM 44.6 °F 37.8 °F 42.8 °F 93% 29.74 in 7.0 mi NW 15.0 mph 24.2 mph N/A Rain Light Rain
9:55 PM 44.6 °F 38.4 °F 42.8 °F 93% 29.75 in 5.0 mi NW 12.7 mph 26.5 mph N/A Rain Rain
10:35 PM 44.6 °F 37.4 °F 42.8 °F 93% 29.78 in 7.0 mi NW 16.1 mph 24.2 mph N/A   Light Drizzle
10:55 PM 44.6 °F 38.1 °F 41.0 °F 87% 29.78 in 7.0 mi NW 13.8 mph 24.2 mph N/A   Overcast
11:15 PM 44.6 °F 37.8 °F 41.0 °F 87% 29.79 in 10.0 mi NW 15.0 mph 21.9 mph N/A   Overcast
11:34 PM 44.6 °F 38.1 °F 41.0 °F 87% 29.80 in 10.0 mi NW 13.8 mph 21.9 mph N/A   Overcast
11:55 PM 44.6 °F 37.8 °F 41.0 °F 87% 29.80 in 10.0 mi NW 15.0 mph 21.9 mph N/A   Overcast